User: anonymous   Login
Location: Ward Pound Ridge Reservation
(41.2500°N, 73.6000°W)
Time: 13:05:18
(UTC-05:00)
Language:

Tiangong 1 - Orbit

View from above orbital plane
View from above orbital plane
View from above satellite
View from above satellite

Ground track
Ground track

The orbit data is extracted from the following two-line orbital elements,

1 37820U 11053A   18018.28087089  .00064392  10058-4  12629-3 0  9995
2 37820  42.7537 306.1941 0018407 192.6998 304.1762 15.99542994362155
Epoch (UTC): 18 January 2018 06:44:27
Eccentricity: 0.0018407
inclination: 42.7537°
perigee height: 263 km
apogee height: 288 km
right ascension of ascending node: 306.1941°
argument of perigee: 192.6998°
revolutions per day: 15.99542994
mean anomaly at epoch: 304.1762°
orbit number at epoch: 36215

The dashed part of the orbit path shows where the satellite is in the earth's shadow,  

DLR